Simultaneous Nadir Overpasses (SNOs) Predictions

Prediction of SNOs between FY3D and TERRA Satellite Orbit:

Table of predicted SNOs for the next 14.0 days since TLE Epoch: 2/11/2023
Index Date (FY3D) Time (FY3D) Lat,Lon (FY3D) SZA (FY3D ) Date (TERRA) Time (TERRA) Lat,Lon (TERRA) SZA (TERRA ) Distance(km) Time Diff (sec)
1 02/11/2023 07:14:06 72.85, 71.30 86.87 02/11/2023 07:14:29 72.83, 71.32 86.85 1.98 23
2 02/11/2023 08:04:49 -72.74,-121.15 93.26 02/11/2023 08:03:54 -72.77,-121.15 93.23 3.53 55
3 02/13/2023 19:18:17 -72.88, 70.23 93.94 02/13/2023 19:19:01 -72.86, 70.21 93.96 1.66 44
4 02/13/2023 20:09:02 72.80,-122.31 85.98 02/13/2023 20:08:24 72.77,-122.29 85.95 3.52 38
5 02/16/2023 07:22:30 72.90, 69.16 85.23 02/16/2023 07:23:30 72.91, 69.17 85.24 1.65 60
6 02/16/2023 08:13:14 -72.84,-123.40 94.85 02/16/2023 08:12:56 -72.81,-123.38 94.88 3.12 18
7 02/18/2023 19:26:47 -73.19, 67.51 95.35 02/18/2023 19:27:58 -73.12, 68.41 95.45 30.26 71
8 02/18/2023 20:17:27 72.87,-124.49 84.31 02/18/2023 20:17:24 72.86,-124.43 84.29 2.14 3
9 02/18/2023 21:08:05 -72.50, 43.59 96.09 02/18/2023 21:06:53 -72.60, 42.73 95.97 30.49 72
10 02/21/2023 08:21:38 -72.87,-125.50 96.60 02/21/2023 08:21:55 -72.86,-125.58 96.61 3.03 17
11 02/21/2023 09:12:23 72.80, 41.96 83.32 02/21/2023 09:11:17 72.80, 41.97 83.33 0.62 66
12 02/23/2023 20:25:51 72.91,-126.61 82.54 02/23/2023 20:26:21 72.90,-126.64 82.52 1.99 30
13 02/23/2023 21:16:34 -72.80, 40.93 97.59 02/23/2023 21:15:47 -72.81, 40.84 97.58 3.18 47



Historial Predications of SNOs between FY3D and TERRA
